Tracking 27097 objects as of 29-Mar-2023
HD Live streaming from Space Station
objects crossing your sky now

OSCAR 24

Track OSCAR 24 now!
10-day predictions
OSCAR 24 is classified as:


NORAD ID: 15936
Int'l Code: 1985-066B
Perigee: 1,005.6 km
Apogee: 1,259.7 km
Inclination: 90.2 °
Period: 107.8 minutes
Semi major axis: 7503 km
RCS: 1.6504 m2 (large)
Launch date: August 3, 1985
Source: United States (US)
Launch site: AIR FORCE WESTERN TEST RANGE (AFWTR)
Your satellite tracking list
Your tracking list is empty




NASA's NSSDC Master Catalog

Two Line Element Set (TLE):
1 15936U 85066B   23088.53652787  .00000193  00000-0  33421-3 0  9992
2 15936  90.1747  74.7668 0169327   0.9605 116.7187 13.35665228834591
Source of the keplerian elements: AFSPC